Weather Roundup
Issued by NWS

Home | Current Version | Previous Version | Graphics & Text | Print | Product List | Glossary Off
Versions: 1 2 3 4 5 6 7 8 9 10 11 12 13 14 15 16 17 18 19 20 21 22 23 24 25 26 27 28 29 30 31 32 33 34 35 36 37 38 39 40 41 42 43 44 45 46 47 48 49 50

000
NZUS93 KARX 240659
HRRWXR

CURRENT HOURLY OBSERVATIONS ACROSS
MUCH OF THE UPPER MISSISSIPPI VALLEY
NATIONAL WEATHER SERVICE LA CROSSE WI
200 AM CDT FRI OCT 24 2014


...SOUTHEAST MINNESOTA...


CITY           SKY/WX    TMP DP  RH WIND       PRES   REMARKS
ROCHESTER      FOG       46  45  96 S9        30.02R VSB 1/4
ROCHESTER/MAYO CLOUDY    47  46  99 SE7       30.02S VSB 3/4
WINONA         CLOUDY    52  50  93 CALM      30.03S FOG
AUSTIN         MIX PCPN  46  46 100 S3        30.01S VSB<1/4
ALBERT LEA     PTCLDY    46  46 100 S3        30.00S FOG
DODGE CENTER   CLEAR     46  45  93 SW6       30.01R FOG
PRESTON        FOG       49  48  98 S7        30.03S VSB 1/4
OWATONNA       PTCLDY    48  45  87 SE5       29.99S
FARIBAULT      PTCLDY    46  46 100 S5        29.99S
$$

...ELSEWHERE IN MINNESOTA...


CITY           SKY/WX    TMP DP  RH WIND       PRES   REMARKS
MINNEAPOLIS    MOCLDY    48  46  93 E7        29.96F
INTNL FALLS    MOCLDY    50  40  68 S5        29.79F
DULUTH         FOG       49  46  90 S9        29.91F VSB 3/4
RED WING       CLOUDY    48  48 100 SE3       30.00R FOG
REDWOOD FALLS  MOCLDY    49  42  77 S7        29.91F
MANKATO        MOCLDY    46  37  71 S10       29.96F
WORTHINGTON    PTCLDY    50  43  76 S13       29.94F
FAIRMONT       PTCLDY    45  37  76 S9        29.96F
$$

...SOUTHWEST WISCONSIN...


CITY           SKY/WX    TMP DP  RH WIND       PRES   REMARKS
LA CROSSE      CLOUDY    51  49  92 SE3       30.03S FOG
PRAIRIE DU CHI CLOUDY    50  49  94 CALM      30.04S FOG
BOSCOBEL       CLOUDY    50  49  96 SW5       30.06R FOG
LONE ROCK      CLOUDY    52  48  86 W7        30.04S FOG
PLATTEVILLE    CLOUDY    50  49  97 SW6       30.05R
FORT MC COY    CLOUDY    47  47  99 CALM      30.05R FOG
CAMP DOUGLAS   CLOUDY    48  48 100 SW3       30.03R FOG
VIROQUA        CLOUDY    48  48 100 CALM      30.04R VSB 1/4
WIS DELLS      FOG       47  46  95 CALM      30.03S VSB 1/2
$$

...ELSEWHERE IN WISCONSIN...


CITY           SKY/WX    TMP DP  RH WIND       PRES   REMARKS
MILWAUKEE      NOT AVBL
MADISON        CLOUDY    50  48  93 VRB5      30.04R FOG
GREEN BAY      CLOUDY    48  47  96 W5        30.02S FOG
EAU CLAIRE     FOG       49  48  97 S6        30.01S VSB 1
BLACK RVR FLS  FOG       48  48 100 SW5       30.03R VSB 1/2
MEDFORD        FOG       45  44  99 SW3       30.01S VSB 1/4
WAUSAU         FOG       46  46 100 SW3       30.00S VSB 1/2
WIS RAPIDS     FOG       47  46  97 CALM      30.04R VSB 1
MARSHFIELD     FOG       47  46  97 W6        30.01S VSB 3/4
RICE LAKE      FOG       50  49  95 S6        30.01S VSB 1
$$

...NORTHEAST IOWA...


CITY           SKY/WX    TMP DP  RH WIND       PRES   REMARKS
DECORAH        FOG       50  50 100 SW5       30.03S VSB<1/4
MASON CITY     NOT AVBL
CHARLES CITY   FOG       48  48 100 SE3       30.04R VSB<1/4
OELWEIN        FOG       48  48 100 S6        30.04S VSB<1/4
$$

...ELSEWHERE IN IOWA...


CITY           SKY/WX    TMP DP  RH WIND       PRES   REMARKS
DES MOINES     FOG       52  51  97 S5        30.03S VSB 1/8
IOWA CITY      FOG       46  46 100 W5        30.06S VSB 1/4
FORT DODGE     PTCLDY    48  43  81 SE3       30.01S
$$

...NORTHERN ILLINOIS...


CITY           SKY/WX    TMP DP  RH WIND       PRES   REMARKS
CHICAGO-OHARE  CLOUDY    53  44  71 SW5       30.04S
CHICAGO-MIDWAY NOT AVBL
MOLINE         CLEAR     45  43  93 CALM      30.05S
ROCKFORD       FOG       44  42  93 CALM      30.05S VSB 3/4
PEORIA         PTCLDY    54  46  74 SW3       30.06S
$$

NOTE: "FAIR" INDICATES FEW OR NO CLOUDS BELOW 12,000 FEET WITH NO
SIGNIFICANT WEATHER AND/OR OBSTRUCTIONS TO VISIBILITY. WIND
SPEEDS ARE IN MILES-PER-HOUR.



USA.gov is the U.S. government's official web portal to all federal, state and local government web resources and services.